Time,TemperatureF,DewpointF,PressureIn,WindDirection,WindDirectionDegrees,WindSpeedMPH,WindSpeedGustMPH,Humidity,HourlyPrecipIn,Conditions,Clouds,dailyrainin,SoftwareType,DateUTC
2013-04-01 00:02:00,33.8,0.0,29.92,NW,312,10.0,13.0,0,0.00,,---,0.00,VWS V14.00,2013-04-01 05:02:00,
2013-04-01 00:08:00,33.7,0.0,29.92,WNW,303,9.0,13.0,0,0.00,,---,0.00,VWS V14.00,2013-04-01 05:08:00,
2013-04-01 00:13:00,33.4,0.0,29.93,NW,309,8.0,13.0,0,0.00,,---,0.00,VWS V14.00,2013-04-01 05:13:00,
2013-04-01 00:18:00,33.4,0.0,29.93,NW,304,9.0,14.0,0,0.00,,---,0.00,VWS V14.00,2013-04-01 05:18:00,
2013-04-01 00:23:00,33.4,0.0,29.93,NW,304,8.0,14.0,0,0.00,,---,0.00,VWS V14.00,2013-04-01 05:23:00,
2013-04-01 00:28:00,33.2,0.0,29.93,NW,313,13.0,14.0,0,0.00,,---,0.00,VWS V14.00,2013-04-01 05:28:00,
2013-04-01 00:33:00,33.4,0.0,29.93,WNW,302,12.0,15.0,0,0.00,,---,0.00,VWS V14.00,2013-04-01 05:33:00,
2013-04-01 00:38:00,33.2,0.0,29.93,NW,310,11.0,15.0,0,0.00,,---,0.00,VWS V14.00,2013-04-01 05:38:00,
2013-04-01 00:43:00,33.1,0.0,29.93,NW,309,9.0,15.0,0,0.00,,---,0.00,VWS V14.00,2013-04-01 05:43:00,
2013-04-01 00:48:00,32.9,0.0,29.94,NW,304,10.0,15.0,0,0.00,,---,0.00,VWS V14.00,2013-04-01 05:48:00,
2013-04-01 00:53:00,32.8,0.0,29.94,WNW,300,6.0,15.0,0,0.00,,---,0.00,VWS V14.00,2013-04-01 05:53:00,
2013-04-01 00:58:00,32.5,0.0,29.94,NW,304,7.0,15.0,0,0.00,,---,0.00,VWS V14.00,2013-04-01 05:58:00,
2013-04-01 01:03:00,32.4,0.0,29.94,WNW,293,12.0,12.0,0,0.00,,---,0.00,VWS V14.00,2013-04-01 06:03:00,
2013-04-01 01:09:00,32.4,0.0,29.94,WNW,300,5.0,13.0,0,0.00,,---,0.00,VWS V14.00,2013-04-01 06:09:00,
2013-04-01 01:14:00,32.4,0.0,29.94,WNW,303,8.0,13.0,0,0.00,,---,0.00,VWS V14.00,2013-04-01 06:14:00,
2013-04-01 01:19:00,32.2,0.0,29.95,WNW,297,9.0,13.0,0,0.00,,---,0.00,VWS V14.00,2013-04-01 06:19:00,
2013-04-01 01:24:00,32.1,0.0,29.95,WNW,302,8.0,14.0,0,0.00,,---,0.00,VWS V14.00,2013-04-01 06:24:00,
2013-04-01 01:29:00,32.1,0.0,29.95,WNW,297,7.0,14.0,0,0.00,,---,0.00,VWS V14.00,2013-04-01 06:29:00,
2013-04-01 01:34:00,32.1,0.0,29.95,WNW,296,11.0,17.0,0,0.00,,---,0.00,VWS V14.00,2013-04-01 06:34:00,
2013-04-01 01:39:00,32.1,0.0,29.95,NW,310,12.0,17.0,0,0.00,,---,0.00,VWS V14.00,2013-04-01 06:39:00,
2013-04-01 01:44:00,32.1,0.0,29.95,NW,309,12.0,17.0,0,0.00,,---,0.00,VWS V14.00,2013-04-01 06:44:00,
2013-04-01 01:49:00,31.9,0.0,29.96,NW,304,10.0,17.0,0,0.00,,---,0.00,VWS V14.00,2013-04-01 06:49:00,
2013-04-01 01:54:00,31.8,0.0,29.96,NW,312,12.0,17.0,0,0.00,,---,0.00,VWS V14.00,2013-04-01 06:54:00,
2013-04-01 01:59:00,31.8,0.0,29.96,NW,312,13.0,17.0,0,0.00,,---,0.00,VWS V14.00,2013-04-01 06:59:00,
2013-04-01 02:04:00,31.6,0.0,29.96,NW,304,10.0,13.0,0,0.00,,---,0.00,VWS V14.00,2013-04-01 07:04:00,
2013-04-01 02:09:00,31.5,0.0,29.96,WNW,298,10.0,14.0,0,0.00,,---,0.00,VWS V14.00,2013-04-01 07:09:00,
2013-04-01 02:14:00,31.3,0.0,29.97,WNW,300,11.0,14.0,0,0.00,,---,0.00,VWS V14.00,2013-04-01 07:14:00,
2013-04-01 02:19:00,31.3,0.0,29.97,NW,316,6.0,14.0,0,0.00,,---,0.00,VWS V14.00,2013-04-01 07:19:00,
2013-04-01 02:24:00,31.3,0.0,29.97,NW,310,12.0,14.0,0,0.00,,---,0.00,VWS V14.00,2013-04-01 07:24:00,
2013-04-01 02:29:00,31.2,0.0,29.97,NW,307,10.0,14.0,0,0.00,,---,0.00,VWS V14.00,2013-04-01 07:29:00,
2013-04-01 02:34:00,31.0,0.0,29.97,NW,306,11.0,12.0,0,0.00,,---,0.00,VWS V14.00,2013-04-01 07:34:00,
2013-04-01 02:39:00,30.9,0.0,29.97,WNW,302,9.0,12.0,0,0.00,,---,0.00,VWS V14.00,2013-04-01 07:39:00,
2013-04-01 02:44:00,30.9,0.0,29.97,NW,306,11.0,12.0,0,0.00,,---,0.00,VWS V14.00,2013-04-01 07:44:00,
2013-04-01 02:50:00,30.7,0.0,29.97,NW,321,10.0,13.0,0,0.00,,---,0.00,VWS V14.00,2013-04-01 07:50:00,
2013-04-01 02:55:00,30.6,0.0,29.98,NW,317,12.0,14.0,0,0.00,,---,0.00,VWS V14.00,2013-04-01 07:55:00,
2013-04-01 03:00:00,30.6,0.0,29.98,NW,315,10.0,14.0,0,0.00,,---,0.00,VWS V14.00,2013-04-01 08:00:00,
2013-04-01 03:05:00,30.6,0.0,29.98,NW,309,13.0,17.0,0,0.00,,---,0.00,VWS V14.00,2013-04-01 08:05:00,
2013-04-01 03:10:00,30.6,0.0,29.98,NW,319,13.0,17.0,0,0.00,,---,0.00,VWS V14.00,2013-04-01 08:10:00,
2013-04-01 03:15:00,30.6,0.0,29.98,NW,313,15.0,17.0,0,0.00,,---,0.00,VWS V14.00,2013-04-01 08:15:00,
2013-04-01 03:20:00,30.4,0.0,29.99,NW,314,9.0,17.0,0,0.00,,---,0.00,VWS V14.00,2013-04-01 08:20:00,
2013-04-01 03:25:00,30.3,0.0,29.99,NW,315,11.0,17.0,0,0.00,,---,0.00,VWS V14.00,2013-04-01 08:25:00,
2013-04-01 03:30:00,30.3,0.0,29.99,NW,307,8.0,17.0,0,0.00,,---,0.00,VWS V14.00,2013-04-01 08:30:00,
2013-04-01 03:35:00,30.1,0.0,29.99,NW,321,12.0,13.0,0,0.00,,---,0.00,VWS V14.00,2013-04-01 08:35:00,
2013-04-01 03:40:00,30.1,0.0,29.99,NW,306,9.0,13.0,0,0.00,,---,0.00,VWS V14.00,2013-04-01 08:40:00,
2013-04-01 03:45:00,30.1,0.0,29.99,NW,317,11.0,15.0,0,0.00,,---,0.00,VWS V14.00,2013-04-01 08:45:00,
2013-04-01 03:50:00,30.0,0.0,30.00,NW,306,11.0,15.0,0,0.00,,---,0.00,VWS V14.00,2013-04-01 08:50:00,
2013-04-01 03:55:00,30.0,0.0,30.00,NW,317,8.0,15.0,0,0.00,,---,0.00,VWS V14.00,2013-04-01 08:55:00,
2013-04-01 04:00:00,29.8,0.0,30.00,NW,312,10.0,15.0,0,0.00,,---,0.00,VWS V14.00,2013-04-01 09:00:00,
2013-04-01 04:06:00,29.8,0.0,30.00,NW,322,9.0,11.0,0,0.00,,---,0.00,VWS V14.00,2013-04-01 09:06:00,
2013-04-01 04:11:00,29.7,0.0,30.00,NW,314,9.0,12.0,0,0.00,,---,0.00,VWS V14.00,2013-04-01 09:11:00,
2013-04-01 04:16:00,29.7,0.0,30.00,NW,322,11.0,13.0,0,0.00,,---,0.00,VWS V14.00,2013-04-01 09:16:00,
2013-04-01 04:21:00,29.5,0.0,30.00,NW,325,10.0,13.0,0,0.00,,---,0.00,VWS V14.00,2013-04-01 09:21:00,
2013-04-01 04:26:00,29.5,0.0,30.01,NW,305,12.0,14.0,0,0.00,,---,0.00,VWS V14.00,2013-04-01 09:26:00,
2013-04-01 04:31:00,29.5,0.0,30.01,NW,319,8.0,10.0,0,0.00,,---,0.00,VWS V14.00,2013-04-01 09:31:00,
2013-04-01 04:36:00,29.5,0.0,30.01,NW,318,11.0,14.0,0,0.00,,---,0.00,VWS V14.00,2013-04-01 09:36:00,
2013-04-01 04:41:00,29.5,0.0,30.01,NW,324,11.0,15.0,0,0.00,,---,0.00,VWS V14.00,2013-04-01 09:41:00,
2013-04-01 04:46:00,29.4,0.0,30.02,NW,319,9.0,15.0,0,0.00,,---,0.00,VWS V14.00,2013-04-01 09:46:00,
2013-04-01 04:52:00,29.4,0.0,30.02,NW,314,13.0,15.0,0,0.00,,---,0.00,VWS V14.00,2013-04-01 09:52:00,
2013-04-01 04:57:00,29.4,0.0,30.02,NW,325,12.0,15.0,0,0.00,,---,0.00,VWS V14.00,2013-04-01 09:57:00,
2013-04-01 05:02:00,29.3,0.0,30.02,NW,310,6.0,11.0,0,0.00,,---,0.00,VWS V14.00,2013-04-01 10:02:00,
2013-04-01 05:07:00,29.1,0.0,30.02,NW,304,12.0,13.0,0,0.00,,---,0.00,VWS V14.00,2013-04-01 10:07:00,
2013-04-01 05:12:00,29.1,0.0,30.03,NW,322,8.0,13.0,0,0.00,,---,0.00,VWS V14.00,2013-04-01 10:12:00,
2013-04-01 05:17:00,29.0,0.0,30.03,NW,321,11.0,14.0,0,0.00,,---,0.00,VWS V14.00,2013-04-01 10:17:00,
2013-04-01 05:22:00,29.1,0.0,30.03,NW,317,9.0,14.0,0,0.00,,---,0.00,VWS V14.00,2013-04-01 10:22:00,
2013-04-01 05:27:00,29.0,0.0,30.03,NNW,333,7.0,14.0,0,0.00,,---,0.00,VWS V14.00,2013-04-01 10:27:00,
2013-04-01 05:32:00,29.0,0.0,30.03,NW,305,14.0,17.0,0,0.00,,---,0.00,VWS V14.00,2013-04-01 10:32:00,
2013-04-01 05:37:00,29.1,0.0,30.04,NW,309,13.0,17.0,0,0.00,,---,0.00,VWS V14.00,2013-04-01 10:37:00,
2013-04-01 05:42:00,29.0,0.0,30.04,NW,313,13.0,17.0,0,0.00,,---,0.00,VWS V14.00,2013-04-01 10:42:00,
2013-04-01 05:48:00,29.0,0.0,30.04,NNW,332,13.0,17.0,0,0.00,,---,0.00,VWS V14.00,2013-04-01 10:48:00,
2013-04-01 05:53:00,29.0,0.0,30.05,NW,315,11.0,17.0,0,0.00,,---,0.00,VWS V14.00,2013-04-01 10:53:00,
2013-04-01 05:58:00,29.0,0.0,30.05,NW,307,15.0,17.0,0,0.00,,---,0.00,VWS V14.00,2013-04-01 10:58:00,
2013-04-01 06:03:00,28.8,0.0,30.05,NW,311,15.0,15.0,0,0.00,,---,0.00,VWS V14.00,2013-04-01 11:03:00,
2013-04-01 06:08:00,28.7,0.0,30.05,NW,318,11.0,17.0,0,0.00,,---,0.00,VWS V14.00,2013-04-01 11:08:00,
2013-04-01 06:13:00,28.7,0.0,30.05,NW,319,11.0,17.0,0,0.00,,---,0.00,VWS V14.00,2013-04-01 11:13:00,
2013-04-01 06:18:00,28.5,0.0,30.05,NW,323,14.0,17.0,0,0.00,,---,0.00,VWS V14.00,2013-04-01 11:18:00,
2013-04-01 06:23:00,28.5,0.0,30.05,NNW,333,9.0,17.0,0,0.00,,---,0.00,VWS V14.00,2013-04-01 11:23:00,
2013-04-01 06:28:00,28.4,0.0,30.06,NW,321,9.0,17.0,0,0.00,,---,0.00,VWS V14.00,2013-04-01 11:28:00,
2013-04-01 06:34:00,28.4,0.0,30.06,NW,321,7.0,13.0,0,0.00,,---,0.00,VWS V14.00,2013-04-01 11:34:00,
2013-04-01 06:39:00,28.4,0.0,30.06,NW,326,7.0,13.0,0,0.00,,---,0.00,VWS V14.00,2013-04-01 11:39:00,
2013-04-01 06:44:00,28.2,0.0,30.06,NW,322,9.0,13.0,0,0.00,,---,0.00,VWS V14.00,2013-04-01 11:44:00,
2013-04-01 06:49:00,28.2,0.0,30.07,NNW,336,9.0,13.0,0,0.00,,---,0.00,VWS V14.00,2013-04-01 11:49:00,
2013-04-01 06:54:00,28.1,0.0,30.07,NW,322,7.0,13.0,0,0.00,,---,0.00,VWS V14.00,2013-04-01 11:54:00,
2013-04-01 06:59:00,28.1,0.0,30.07,NW,315,6.0,13.0,0,0.00,,---,0.00,VWS V14.00,2013-04-01 11:59:00,
2013-04-01 07:04:00,28.1,0.0,30.07,NW,322,6.0,10.0,0,0.00,,---,0.00,VWS V14.00,2013-04-01 12:04:00,
2013-04-01 07:09:00,28.1,0.0,30.08,NW,313,7.0,10.0,0,0.00,,---,0.00,VWS V14.00,2013-04-01 12:09:00,
2013-04-01 07:14:00,28.1,0.0,30.08,NW,312,13.0,15.0,0,0.00,,---,0.00,VWS V14.00,2013-04-01 12:14:00,
2013-04-01 07:19:00,28.2,0.0,30.08,NW,324,12.0,15.0,0,0.00,,---,0.00,VWS V14.00,2013-04-01 12:19:00,
2013-04-01 07:24:00,28.2,0.0,30.08,NW,321,13.0,17.0,0,0.00,,---,0.00,VWS V14.00,2013-04-01 12:24:00,
2013-04-01 07:29:00,28.2,0.0,30.09,NNW,328,11.0,17.0,0,0.00,,---,0.00,VWS V14.00,2013-04-01 12:29:00,
2013-04-01 07:34:00,28.4,0.0,30.09,NW,317,14.0,16.0,0,0.00,,---,0.00,VWS V14.00,2013-04-01 12:34:00,
2013-04-01 07:39:00,28.4,0.0,30.09,NW,318,13.0,17.0,0,0.00,,---,0.00,VWS V14.00,2013-04-01 12:39:00,
2013-04-01 07:44:00,28.5,0.0,30.09,NNW,346,16.0,18.0,0,0.00,,---,0.00,VWS V14.00,2013-04-01 12:44:00,
2013-04-01 07:49:00,28.5,0.0,30.10,NW,311,14.0,20.0,0,0.00,,---,0.00,VWS V14.00,2013-04-01 12:49:00,
2013-04-01 07:54:00,28.5,0.0,30.10,WNW,296,14.0,20.0,0,0.00,,---,0.00,VWS V14.00,2013-04-01 12:54:00,
2013-04-01 07:59:00,28.5,0.0,30.10,NNW,336,18.0,21.0,0,0.00,,---,0.00,VWS V14.00,2013-04-01 12:59:00,
2013-04-01 08:04:00,28.5,0.0,30.10,NNW,327,14.0,22.0,0,0.00,,---,0.00,VWS V14.00,2013-04-01 13:04:00,
2013-04-01 08:09:00,28.7,0.0,30.11,NW,325,21.0,22.0,0,0.00,,---,0.00,VWS V14.00,2013-04-01 13:09:00,
2013-04-01 08:14:00,29.0,0.0,30.11,NW,326,20.0,22.0,0,0.00,,---,0.00,VWS V14.00,2013-04-01 13:14:00,
2013-04-01 08:19:00,28.8,0.0,30.11,NNW,334,17.0,27.0,0,0.00,,---,0.00,VWS V14.00,2013-04-01 13:19:00,
2013-04-01 08:24:00,28.8,0.0,30.11,NW,326,16.0,27.0,0,0.00,,---,0.00,VWS V14.00,2013-04-01 13:24:00,
2013-04-01 08:29:00,28.8,0.0,30.11,NW,322,19.0,27.0,0,0.00,,---,0.00,VWS V14.00,2013-04-01 13:29:00,
2013-04-01 08:34:00,29.3,0.0,30.11,WNW,295,14.0,16.0,0,0.00,,---,0.00,VWS V14.00,2013-04-01 13:34:00,
2013-04-01 08:40:00,29.3,0.0,30.11,NW,311,13.0,18.0,0,0.00,,---,0.00,VWS V14.00,2013-04-01 13:40:00,
2013-04-01 08:45:00,29.4,0.0,30.11,NW,306,17.0,19.0,0,0.00,,---,0.00,VWS V14.00,2013-04-01 13:45:00,
2013-04-01 08:50:00,29.1,0.0,30.12,NW,305,12.0,22.0,0,0.00,,---,0.00,VWS V14.00,2013-04-01 13:50:00,
2013-04-01 08:55:00,28.8,0.0,30.12,NW,319,14.0,22.0,0,0.00,,---,0.00,VWS V14.00,2013-04-01 13:55:00,
2013-04-01 09:00:00,28.7,0.0,30.12,NW,321,16.0,22.0,0,0.00,,---,0.00,VWS V14.00,2013-04-01 14:00:00,
2013-04-01 09:58:00,29.7,0.0,30.13,NW,309,11.0,13.0,0,0.00,,---,0.00,VWS V14.00,2013-04-01 14:58:00,
2013-04-01 10:03:00,30.0,0.0,30.13,NW,318,12.0,20.0,0,0.00,,---,0.00,VWS V14.00,2013-04-01 15:03:00,
2013-04-01 10:08:00,30.1,0.0,30.13,NNW,330,7.0,20.0,0,0.00,,---,0.00,VWS V14.00,2013-04-01 15:08:00,
2013-04-01 10:14:00,30.1,0.0,30.13,NW,326,16.0,24.0,0,0.00,,---,0.00,VWS V14.00,2013-04-01 15:14:00,
2013-04-01 10:19:00,30.0,0.0,30.14,NNW,332,17.0,24.0,0,0.00,,---,0.00,VWS V14.00,2013-04-01 15:19:00,
2013-04-01 10:24:00,30.0,0.0,30.13,NW,319,19.0,24.0,0,0.00,,---,0.00,VWS V14.00,2013-04-01 15:24:00,
2013-04-01 10:29:00,30.4,0.0,30.14,NW,325,15.0,24.0,0,0.00,,---,0.00,VWS V14.00,2013-04-01 15:29:00,
2013-04-01 10:34:00,30.3,0.0,30.14,NW,322,16.0,20.0,0,0.00,,---,0.00,VWS V14.00,2013-04-01 15:34:00,
2013-04-01 10:39:00,30.3,0.0,30.14,NNW,340,9.0,20.0,0,0.00,,---,0.00,VWS V14.00,2013-04-01 15:39:00,
2013-04-01 10:44:00,30.4,0.0,30.14,NNW,332,9.0,20.0,0,0.00,,---,0.00,VWS V14.00,2013-04-01 15:44:00,
2013-04-01 10:49:00,30.3,0.0,30.14,NNW,340,10.0,21.0,0,0.00,,---,0.00,VWS V14.00,2013-04-01 15:49:00,
2013-04-01 10:54:00,30.7,0.0,30.14,NW,310,11.0,30.0,0,0.00,,---,0.00,VWS V14.00,2013-04-01 15:54:00,
2013-04-01 10:59:00,30.3,0.0,30.14,NW,315,7.0,30.0,0,0.00,,---,0.00,VWS V14.00,2013-04-01 15:59:00,
2013-04-01 11:04:00,30.6,0.0,30.15,NNW,333,15.0,23.0,0,0.00,,---,0.00,VWS V14.00,2013-04-01 16:04:00,
2013-04-01 11:09:00,30.7,0.0,30.15,NNW,330,13.0,23.0,0,0.00,,---,0.00,VWS V14.00,2013-04-01 16:09:00,
2013-04-01 11:14:00,31.2,0.0,30.14,NW,312,13.0,23.0,0,0.00,,---,0.00,VWS V14.00,2013-04-01 16:14:00,
2013-04-01 11:19:00,31.5,0.0,30.15,WNW,294,10.0,23.0,0,0.00,,---,0.00,VWS V14.00,2013-04-01 16:19:00,
2013-04-01 11:24:00,31.3,0.0,30.14,WNW,303,19.0,23.0,0,0.00,,---,0.00,VWS V14.00,2013-04-01 16:24:00,
2013-04-01 11:29:00,31.5,0.0,30.14,NW,308,16.0,23.0,0,0.00,,---,0.00,VWS V14.00,2013-04-01 16:29:00,
2013-04-01 11:34:00,31.0,0.0,30.15,NNW,335,13.0,18.0,0,0.00,,---,0.00,VWS V14.00,2013-04-01 16:34:00,
2013-04-01 11:40:00,31.0,0.0,30.15,WNW,298,15.0,18.0,0,0.00,,---,0.00,VWS V14.00,2013-04-01 16:40:00,
2013-04-01 11:45:00,31.5,0.0,30.15,NW,308,20.0,21.0,0,0.00,,---,0.00,VWS V14.00,2013-04-01 16:45:00,
2013-04-01 11:50:00,31.3,0.0,30.15,WNW,302,11.0,21.0,0,0.00,,---,0.00,VWS V14.00,2013-04-01 16:50:00,
2013-04-01 11:55:00,31.6,0.0,30.15,NW,308,13.0,23.0,0,0.00,,---,0.00,VWS V14.00,2013-04-01 16:55:00,
2013-04-01 12:00:00,31.8,0.0,30.15,WNW,296,14.0,23.0,0,0.00,,---,0.00,VWS V14.00,2013-04-01 17:00:00,
2013-04-01 12:05:00,32.4,0.0,30.15,NW,315,10.0,21.0,0,0.00,,---,0.00,VWS V14.00,2013-04-01 17:05:00,
2013-04-01 12:10:00,32.2,0.0,30.15,WNW,296,14.0,21.0,0,0.00,,---,0.00,VWS V14.00,2013-04-01 17:10:00,
2013-04-01 12:15:00,32.5,0.0,30.15,NW,304,14.0,21.0,0,0.00,,---,0.00,VWS V14.00,2013-04-01 17:15:00,
2013-04-01 12:20:00,32.4,0.0,30.15,NNW,329,16.0,24.0,0,0.00,,---,0.00,VWS V14.00,2013-04-01 17:20:00,
2013-04-01 12:25:00,32.8,0.0,30.15,NW,318,14.0,24.0,0,0.00,,---,0.00,VWS V14.00,2013-04-01 17:25:00,
2013-04-01 12:30:00,32.5,0.0,30.15,NW,306,10.0,24.0,0,0.00,,---,0.00,VWS V14.00,2013-04-01 17:30:00,
2013-04-01 12:35:00,32.8,0.0,30.15,NW,312,9.0,17.0,0,0.00,,---,0.00,VWS V14.00,2013-04-01 17:35:00,
2013-04-01 12:40:00,33.4,0.0,30.15,WNW,301,12.0,20.0,0,0.00,,---,0.00,VWS V14.00,2013-04-01 17:40:00,
2013-04-01 12:46:00,33.4,0.0,30.15,NW,311,14.0,20.0,0,0.00,,---,0.00,VWS V14.00,2013-04-01 17:46:00,
2013-04-01 12:51:00,33.2,0.0,30.15,NW,313,12.0,21.0,0,0.00,,---,0.00,VWS V14.00,2013-04-01 17:51:00,
2013-04-01 12:56:00,33.1,0.0,30.15,WNW,289,9.0,21.0,0,0.00,,---,0.00,VWS V14.00,2013-04-01 17:56:00,
2013-04-01 13:00:00,33.7,0.0,30.15,NW,315,9.0,21.0,0,0.00,,---,0.00,VWS V14.00,2013-04-01 18:00:00,
2013-04-01 13:06:00,33.8,0.0,30.15,WNW,302,17.0,21.0,0,0.00,,---,0.00,VWS V14.00,2013-04-01 18:06:00,
2013-04-01 13:11:00,33.8,0.0,30.14,WNW,294,12.0,21.0,0,0.00,,---,0.00,VWS V14.00,2013-04-01 18:11:00,
2013-04-01 13:16:00,33.5,0.0,30.14,WNW,295,12.0,21.0,0,0.00,,---,0.00,VWS V14.00,2013-04-01 18:16:00,
2013-04-01 13:21:00,33.8,0.0,30.14,WNW,284,16.0,21.0,0,0.00,,---,0.00,VWS V14.00,2013-04-01 18:21:00,
2013-04-01 13:26:00,34.0,0.0,30.14,WNW,282,16.0,24.0,0,0.00,,---,0.00,VWS V14.00,2013-04-01 18:26:00,
2013-04-01 13:31:00,33.4,0.0,30.14,WNW,284,10.0,24.0,0,0.00,,---,0.00,VWS V14.00,2013-04-01 18:31:00,
2013-04-01 13:36:00,34.0,0.0,30.14,NW,313,15.0,23.0,0,0.00,,---,0.00,VWS V14.00,2013-04-01 18:36:00,
2013-04-01 13:41:00,34.4,0.0,30.14,WNW,295,12.0,23.0,0,0.00,,---,0.00,VWS V14.00,2013-04-01 18:41:00,
2013-04-01 13:46:00,34.3,0.0,30.14,WNW,283,14.0,23.0,0,0.00,,---,0.00,VWS V14.00,2013-04-01 18:46:00,
2013-04-01 13:52:00,34.4,0.0,30.14,West,279,10.0,23.0,0,0.00,,---,0.00,VWS V14.00,2013-04-01 18:52:00,
2013-04-01 13:57:00,34.9,0.0,30.14,West,281,20.0,23.0,0,0.00,,---,0.00,VWS V14.00,2013-04-01 18:57:00,
2013-04-01 14:02:00,34.7,0.0,30.14,NW,306,12.0,17.0,0,0.00,,---,0.00,VWS V14.00,2013-04-01 19:02:00,
2013-04-01 14:07:00,34.6,0.0,30.14,WNW,303,13.0,25.0,0,0.00,,---,0.00,VWS V14.00,2013-04-01 19:07:00,
2013-04-01 14:12:00,35.0,0.0,30.14,WNW,293,18.0,25.0,0,0.00,,---,0.00,VWS V14.00,2013-04-01 19:12:00,
2013-04-01 14:18:00,35.8,0.0,30.13,West,267,11.0,25.0,0,0.00,,---,0.00,VWS V14.00,2013-04-01 19:18:00,
2013-04-01 14:23:00,35.2,0.0,30.13,WNW,299,11.0,25.0,0,0.00,,---,0.00,VWS V14.00,2013-04-01 19:23:00,
2013-04-01 14:28:00,35.3,0.0,30.13,West,269,14.0,25.0,0,0.00,,---,0.00,VWS V14.00,2013-04-01 19:28:00,
2013-04-01 14:33:00,35.6,0.0,30.13,West,273,17.0,23.0,0,0.00,,---,0.00,VWS V14.00,2013-04-01 19:33:00,
2013-04-01 14:38:00,35.2,0.0,30.13,WNW,298,9.0,23.0,0,0.00,,---,0.00,VWS V14.00,2013-04-01 19:38:00,
2013-04-01 14:43:00,35.6,0.0,30.13,WNW,302,11.0,23.0,0,0.00,,---,0.00,VWS V14.00,2013-04-01 19:43:00,
2013-04-01 14:48:00,35.9,0.0,30.13,West,271,14.0,26.0,0,0.00,,---,0.00,VWS V14.00,2013-04-01 19:48:00,
2013-04-01 14:53:00,35.8,0.0,30.13,West,278,7.0,26.0,0,0.00,,---,0.00,VWS V14.00,2013-04-01 19:53:00,
2013-04-01 14:58:00,36.2,0.0,30.13,WNW,284,16.0,26.0,0,0.00,,---,0.00,VWS V14.00,2013-04-01 19:58:00,
2013-04-01 15:03:00,36.3,0.0,30.13,WNW,284,20.0,24.0,0,0.00,,---,0.00,VWS V14.00,2013-04-01 20:03:00,
2013-04-01 15:08:00,36.2,0.0,30.13,WNW,282,19.0,24.0,0,0.00,,---,0.00,VWS V14.00,2013-04-01 20:08:00,
2013-04-01 15:13:00,36.3,0.0,30.13,WNW,286,15.0,24.0,0,0.00,,---,0.00,VWS V14.00,2013-04-01 20:13:00,
2013-04-01 15:18:00,36.3,0.0,30.12,NW,311,24.0,25.0,0,0.00,,---,0.00,VWS V14.00,2013-04-01 20:18:00,
2013-04-01 15:23:00,36.2,0.0,30.12,NW,315,15.0,25.0,0,0.00,,---,0.00,VWS V14.00,2013-04-01 20:23:00,
2013-04-01 15:29:00,36.0,0.0,30.12,WNW,282,16.0,25.0,0,0.00,,---,0.00,VWS V14.00,2013-04-01 20:29:00,
2013-04-01 15:34:00,36.2,0.0,30.12,WNW,288,18.0,23.0,0,0.00,,---,0.00,VWS V14.00,2013-04-01 20:34:00,
2013-04-01 15:39:00,36.6,0.0,30.12,WNW,301,19.0,23.0,0,0.00,,---,0.00,VWS V14.00,2013-04-01 20:39:00,
2013-04-01 15:44:00,36.2,0.0,30.12,WNW,289,17.0,27.0,0,0.00,,---,0.00,VWS V14.00,2013-04-01 20:44:00,
2013-04-01 15:49:00,36.2,0.0,30.12,West,281,15.0,27.0,0,0.00,,---,0.00,VWS V14.00,2013-04-01 20:49:00,
2013-04-01 15:54:00,36.9,0.0,30.12,WNW,295,17.0,27.0,0,0.00,,---,0.00,VWS V14.00,2013-04-01 20:54:00,
2013-04-01 15:59:00,36.0,0.0,30.12,West,266,13.0,27.0,0,0.00,,---,0.00,VWS V14.00,2013-04-01 20:59:00,
2013-04-01 16:04:00,36.2,0.0,30.12,WNW,296,18.0,21.0,0,0.00,,---,0.00,VWS V14.00,2013-04-01 21:04:00,
2013-04-01 16:09:00,36.6,0.0,30.12,WNW,288,19.0,21.0,0,0.00,,---,0.00,VWS V14.00,2013-04-01 21:09:00,
2013-04-01 16:14:00,36.8,0.0,30.12,WNW,288,19.0,25.0,0,0.00,,---,0.00,VWS V14.00,2013-04-01 21:14:00,
2013-04-01 16:19:00,36.2,0.0,30.12,WNW,283,14.0,25.0,0,0.00,,---,0.00,VWS V14.00,2013-04-01 21:19:00,
2013-04-01 16:24:00,35.9,0.0,30.12,NW,308,15.0,25.0,0,0.00,,---,0.00,VWS V14.00,2013-04-01 21:24:00,
2013-04-01 16:29:00,36.5,0.0,30.12,WNW,292,19.0,25.0,0,0.00,,---,0.00,VWS V14.00,2013-04-01 21:29:00,
2013-04-01 16:34:00,36.8,0.0,30.12,WNW,293,9.0,20.0,0,0.00,,---,0.00,VWS V14.00,2013-04-01 21:34:00,
2013-04-01 16:39:00,37.2,0.0,30.12,WNW,293,19.0,24.0,0,0.00,,---,0.00,VWS V14.00,2013-04-01 21:39:00,
2013-04-01 16:44:00,36.6,0.0,30.12,NW,304,12.0,24.0,0,0.00,,---,0.00,VWS V14.00,2013-04-01 21:44:00,
2013-04-01 16:49:00,36.9,0.0,30.12,NW,308,15.0,24.0,0,0.00,,---,0.00,VWS V14.00,2013-04-01 21:49:00,
2013-04-01 16:54:00,36.9,0.0,30.12,WNW,285,14.0,24.0,0,0.00,,---,0.00,VWS V14.00,2013-04-01 21:54:00,
2013-04-01 16:59:00,36.6,0.0,30.12,WNW,295,16.0,24.0,0,0.00,,---,0.00,VWS V14.00,2013-04-01 21:59:00,
2013-04-01 17:04:00,36.5,0.0,30.13,WNW,299,16.0,23.0,0,0.00,,---,0.00,VWS V14.00,2013-04-01 22:04:00,
2013-04-01 17:09:00,36.3,0.0,30.13,WNW,292,13.0,23.0,0,0.00,,---,0.00,VWS V14.00,2013-04-01 22:09:00,
2013-04-01 17:14:00,36.6,0.0,30.13,WNW,288,14.0,23.0,0,0.00,,---,0.00,VWS V14.00,2013-04-01 22:14:00,
2013-04-01 17:20:00,36.6,0.0,30.13,NW,314,12.0,25.0,0,0.00,,---,0.00,VWS V14.00,2013-04-01 22:20:00,
2013-04-01 17:25:00,36.6,0.0,30.13,WNW,284,17.0,25.0,0,0.00,,---,0.00,VWS V14.00,2013-04-01 22:25:00,
2013-04-01 17:30:00,36.8,0.0,30.13,WNW,286,17.0,25.0,0,0.00,,---,0.00,VWS V14.00,2013-04-01 22:30:00,
2013-04-01 17:35:00,36.3,0.0,30.13,WNW,290,15.0,22.0,0,0.00,,---,0.00,VWS V14.00,2013-04-01 22:35:00,
2013-04-01 17:40:00,36.3,0.0,30.13,NW,309,18.0,22.0,0,0.00,,---,0.00,VWS V14.00,2013-04-01 22:40:00,
2013-04-01 17:45:00,36.5,0.0,30.13,WNW,286,25.0,25.0,0,0.00,,---,0.00,VWS V14.00,2013-04-01 22:45:00,
2013-04-01 17:50:00,36.2,0.0,30.13,WNW,299,13.0,25.0,0,0.00,,---,0.00,VWS V14.00,2013-04-01 22:50:00,
2013-04-01 17:55:00,36.3,0.0,30.13,NW,305,11.0,25.0,0,0.00,,---,0.00,VWS V14.00,2013-04-01 22:55:00,
2013-04-01 18:00:00,36.5,0.0,30.13,WNW,294,10.0,25.0,0,0.00,,---,0.00,VWS V14.00,2013-04-01 23:00:00,
2013-04-01 18:05:00,36.3,0.0,30.13,WNW,292,17.0,20.0,0,0.00,,---,0.00,VWS V14.00,2013-04-01 23:05:00,
2013-04-01 18:10:00,35.9,0.0,30.13,West,275,9.0,20.0,0,0.00,,---,0.00,VWS V14.00,2013-04-01 23:10:00,
2013-04-01 18:15:00,35.9,0.0,30.13,WNW,288,23.0,23.0,0,0.00,,---,0.00,VWS V14.00,2013-04-01 23:15:00,
2013-04-01 18:20:00,35.6,0.0,30.13,West,277,10.0,23.0,0,0.00,,---,0.00,VWS V14.00,2013-04-01 23:20:00,
2013-04-01 18:25:00,35.6,0.0,30.13,WNW,298,9.0,23.0,0,0.00,,---,0.00,VWS V14.00,2013-04-01 23:25:00,
2013-04-01 18:30:00,35.6,0.0,30.13,WNW,300,16.0,23.0,0,0.00,,---,0.00,VWS V14.00,2013-04-01 23:30:00,
2013-04-01 18:35:00,35.5,0.0,30.13,West,279,11.0,20.0,0,0.00,,---,0.00,VWS V14.00,2013-04-01 23:35:00,
2013-04-01 18:41:00,35.3,0.0,30.13,WNW,290,16.0,20.0,0,0.00,,---,0.00,VWS V14.00,2013-04-01 23:41:00,
2013-04-01 18:46:00,35.2,0.0,30.13,WNW,288,6.0,20.0,0,0.00,,---,0.00,VWS V14.00,2013-04-01 23:46:00,
2013-04-01 18:51:00,35.2,0.0,30.13,WNW,282,11.0,20.0,0,0.00,,---,0.00,VWS V14.00,2013-04-01 23:51:00,
2013-04-01 18:56:00,34.9,0.0,30.13,West,279,13.0,20.0,0,0.00,,---,0.00,VWS V14.00,2013-04-01 23:56:00,
2013-04-01 19:01:00,34.7,0.0,30.13,WNW,288,12.0,14.0,0,0.00,,---,0.00,VWS V14.00,2013-04-02 00:01:00,
2013-04-01 19:06:00,34.6,0.0,30.13,WNW,291,11.0,19.0,0,0.00,,---,0.00,VWS V14.00,2013-04-02 00:06:00,
2013-04-01 19:11:00,34.3,0.0,30.13,WNW,301,13.0,19.0,0,0.00,,---,0.00,VWS V14.00,2013-04-02 00:11:00,
2013-04-01 19:17:00,34.0,0.0,30.13,WNW,286,11.0,19.0,0,0.00,,---,0.00,VWS V14.00,2013-04-02 00:17:00,
2013-04-01 19:22:00,33.7,0.0,30.13,WNW,292,7.0,19.0,0,0.00,,---,0.00,VWS V14.00,2013-04-02 00:22:00,
2013-04-01 19:27:00,33.5,0.0,30.13,WNW,300,13.0,19.0,0,0.00,,---,0.00,VWS V14.00,2013-04-02 00:27:00,
2013-04-01 19:32:00,33.4,0.0,30.13,WNW,292,10.0,14.0,0,0.00,,---,0.00,VWS V14.00,2013-04-02 00:32:00,
2013-04-01 19:37:00,33.2,0.0,30.13,WNW,295,10.0,15.0,0,0.00,,---,0.00,VWS V14.00,2013-04-02 00:37:00,
2013-04-01 19:42:00,33.1,0.0,30.13,WNW,285,9.0,15.0,0,0.00,,---,0.00,VWS V14.00,2013-04-02 00:42:00,
2013-04-01 19:47:00,33.1,0.0,30.14,WNW,292,9.0,15.0,0,0.00,,---,0.00,VWS V14.00,2013-04-02 00:47:00,
2013-04-01 19:52:00,32.8,0.0,30.14,WNW,292,8.0,15.0,0,0.00,,---,0.00,VWS V14.00,2013-04-02 00:52:00,
2013-04-01 19:58:00,32.5,0.0,30.14,WNW,291,6.0,15.0,0,0.00,,---,0.00,VWS V14.00,2013-04-02 00:58:00,
2013-04-01 20:03:00,32.4,0.0,30.14,WNW,289,7.0,9.0,0,0.00,,---,0.00,VWS V14.00,2013-04-02 01:03:00,
2013-04-01 20:08:00,32.2,0.0,30.14,WNW,290,5.0,9.0,0,0.00,,---,0.00,VWS V14.00,2013-04-02 01:08:00,
2013-04-01 20:13:00,32.1,0.0,30.14,WNW,289,6.0,10.0,0,0.00,,---,0.00,VWS V14.00,2013-04-02 01:13:00,
2013-04-01 20:18:00,32.1,0.0,30.14,WNW,287,10.0,11.0,0,0.00,,---,0.00,VWS V14.00,2013-04-02 01:18:00,
2013-04-01 20:23:00,32.2,0.0,30.15,WNW,294,8.0,12.0,0,0.00,,---,0.00,VWS V14.00,2013-04-02 01:23:00,
2013-04-01 20:28:00,32.1,0.0,30.15,WNW,296,7.0,12.0,0,0.00,,---,0.00,VWS V14.00,2013-04-02 01:28:00,
2013-04-01 20:33:00,31.9,0.0,30.15,WNW,298,6.0,11.0,0,0.00,,---,0.00,VWS V14.00,2013-04-02 01:33:00,
2013-04-01 20:38:00,31.9,0.0,30.15,WNW,296,7.0,12.0,0,0.00,,---,0.00,VWS V14.00,2013-04-02 01:38:00,
2013-04-01 20:43:00,31.8,0.0,30.15,WNW,291,10.0,13.0,0,0.00,,---,0.00,VWS V14.00,2013-04-02 01:43:00,
2013-04-01 20:48:00,31.8,0.0,30.16,WNW,297,10.0,14.0,0,0.00,,---,0.00,VWS V14.00,2013-04-02 01:48:00,
2013-04-01 20:53:00,31.6,0.0,30.16,WNW,296,9.0,14.0,0,0.00,,---,0.00,VWS V14.00,2013-04-02 01:53:00,
2013-04-01 20:58:00,31.5,0.0,30.16,WNW,295,6.0,14.0,0,0.00,,---,0.00,VWS V14.00,2013-04-02 01:58:00,
2013-04-01 21:03:00,31.3,0.0,30.16,WNW,293,6.0,10.0,0,0.00,,---,0.00,VWS V14.00,2013-04-02 02:03:00,
2013-04-01 21:08:00,31.3,0.0,30.16,WNW,296,4.0,10.0,0,0.00,,---,0.00,VWS V14.00,2013-04-02 02:08:00,
2013-04-01 21:13:00,31.2,0.0,30.16,WNW,296,8.0,10.0,0,0.00,,---,0.00,VWS V14.00,2013-04-02 02:13:00,
2013-04-01 21:19:00,31.0,0.0,30.17,West,281,9.0,12.0,0,0.00,,---,0.00,VWS V14.00,2013-04-02 02:19:00,
2013-04-01 21:24:00,31.0,0.0,30.17,WNW,289,9.0,13.0,0,0.00,,---,0.00,VWS V14.00,2013-04-02 02:24:00,
2013-04-01 21:29:00,30.9,0.0,30.17,WNW,295,6.0,13.0,0,0.00,,---,0.00,VWS V14.00,2013-04-02 02:29:00,
2013-04-01 21:34:00,30.9,0.0,30.17,WNW,296,9.0,12.0,0,0.00,,---,0.00,VWS V14.00,2013-04-02 02:34:00,
2013-04-01 21:39:00,30.9,0.0,30.17,WNW,294,10.0,12.0,0,0.00,,---,0.00,VWS V14.00,2013-04-02 02:39:00,
2013-04-01 21:44:00,30.7,0.0,30.18,WNW,292,11.0,13.0,0,0.00,,---,0.00,VWS V14.00,2013-04-02 02:44:00,
2013-04-01 21:49:00,30.7,0.0,30.18,WNW,294,9.0,13.0,0,0.00,,---,0.00,VWS V14.00,2013-04-02 02:49:00,
2013-04-01 21:54:00,30.6,0.0,30.18,WNW,294,8.0,13.0,0,0.00,,---,0.00,VWS V14.00,2013-04-02 02:54:00,
2013-04-01 21:59:00,30.4,0.0,30.18,WNW,295,10.0,13.0,0,0.00,,---,0.00,VWS V14.00,2013-04-02 02:59:00,
2013-04-01 22:04:00,30.4,0.0,30.18,WNW,296,7.0,11.0,0,0.00,,---,0.00,VWS V14.00,2013-04-02 03:04:00,
2013-04-01 22:09:00,30.3,0.0,30.18,WNW,293,10.0,12.0,0,0.00,,---,0.00,VWS V14.00,2013-04-02 03:09:00,
2013-04-01 22:14:00,30.3,0.0,30.19,WNW,299,5.0,12.0,0,0.00,,---,0.00,VWS V14.00,2013-04-02 03:14:00,
2013-04-01 22:19:00,30.0,0.0,30.19,WNW,294,9.0,12.0,0,0.00,,---,0.00,VWS V14.00,2013-04-02 03:19:00,
2013-04-01 22:25:00,30.0,0.0,30.19,WNW,300,5.0,12.0,0,0.00,,---,0.00,VWS V14.00,2013-04-02 03:25:00,
2013-04-01 22:30:00,29.8,0.0,30.19,WNW,295,6.0,12.0,0,0.00,,---,0.00,VWS V14.00,2013-04-02 03:30:00,
2013-04-01 22:35:00,29.8,0.0,30.19,WNW,298,6.0,10.0,0,0.00,,---,0.00,VWS V14.00,2013-04-02 03:35:00,
2013-04-01 22:40:00,29.7,0.0,30.19,WNW,295,5.0,10.0,0,0.00,,---,0.00,VWS V14.00,2013-04-02 03:40:00,
2013-04-01 22:45:00,29.5,0.0,30.19,WNW,294,6.0,10.0,0,0.00,,---,0.00,VWS V14.00,2013-04-02 03:45:00,
2013-04-01 22:50:00,29.5,0.0,30.19,WNW,298,5.0,11.0,0,0.00,,---,0.00,VWS V14.00,2013-04-02 03:50:00,
2013-04-01 22:55:00,29.4,0.0,30.19,WNW,302,9.0,11.0,0,0.00,,---,0.00,VWS V14.00,2013-04-02 03:55:00,
2013-04-01 23:00:00,29.3,0.0,30.19,WNW,303,9.0,11.0,0,0.00,,---,0.00,VWS V14.00,2013-04-02 04:00:00,
2013-04-01 23:01:00,29.3,0.0,30.19,WNW,300,7.0,11.0,0,0.00,,---,0.00,VWS V14.00,2013-04-02 04:01:00,
2013-04-01 23:02:00,29.3,0.0,30.19,WNW,302,6.0,10.0,0,0.00,,---,0.00,VWS V14.00,2013-04-02 04:02:00,
2013-04-01 23:07:00,29.1,0.0,30.19,NW,306,9.0,11.0,0,0.00,,---,0.00,VWS V14.00,2013-04-02 04:07:00,
2013-04-01 23:13:00,29.1,0.0,30.19,WNW,300,5.0,11.0,0,0.00,,---,0.00,VWS V14.00,2013-04-02 04:13:00,
2013-04-01 23:18:00,29.0,0.0,30.19,NW,304,8.0,11.0,0,0.00,,---,0.00,VWS V14.00,2013-04-02 04:18:00,
2013-04-01 23:23:00,28.8,0.0,30.19,NW,309,9.0,11.0,0,0.00,,---,0.00,VWS V14.00,2013-04-02 04:23:00,
2013-04-01 23:28:00,28.8,0.0,30.19,WNW,301,5.0,11.0,0,0.00,,---,0.00,VWS V14.00,2013-04-02 04:28:00,
2013-04-01 23:33:00,28.8,0.0,30.19,NW,304,6.0,10.0,0,0.00,,---,0.00,VWS V14.00,2013-04-02 04:33:00,
2013-04-01 23:38:00,28.8,0.0,30.19,NW,315,7.0,11.0,0,0.00,,---,0.00,VWS V14.00,2013-04-02 04:38:00,
2013-04-01 23:43:00,28.8,0.0,30.19,WNW,300,9.0,11.0,0,0.00,,---,0.00,VWS V14.00,2013-04-02 04:43:00,
2013-04-01 23:48:00,28.8,0.0,30.19,WNW,302,7.0,11.0,0,0.00,,---,0.00,VWS V14.00,2013-04-02 04:48:00,
2013-04-01 23:53:00,28.7,0.0,30.19,NW,306,7.0,11.0,0,0.00,,---,0.00,VWS V14.00,2013-04-02 04:53:00,
2013-04-01 23:58:00,28.5,0.0,30.19,NW,310,4.0,11.0,0,0.00,,---,0.00,VWS V14.00,2013-04-02 04:58:00,